SEBI

Registration No.

INH000000305

Ip Address Lookup

So far visitors:

customizable counter

TRIAL

TRIAL

SEND SMS FOR TRIAL

EQUITY - COMMODITY OR BOTH

TO

 09920033678

AND GET TRIAL

 


Information: COPPER (MCX): LOT SIZE CHANGED TO 2500 from 1000 (from JUL CONTRACT)

SEBI Registration No.: INH000000305 *****

* Commodity: 9500/month * Equity: 6000/month


* Gold Package: 7000 * Gold-Silver Package: 8100
*Crude-NG-Copper-Nickel Package: 6000


To See Past Performance, Click Here

For TRIAL / Registration,

click here

Past Performance >> Equity Tips
 
Search
 
Entry Start Date Entry End Date
Exit Start Date Exit End Date
Scrip Name Contract
Package
 

Packages: Precious Metals - Energy and Base Metals - Profit is calculated on basis of 1 lot per call

Package: Equity calls: Profit is calculated as follows:

1. If the scrip is in F & O then 1 lot is counted otherwise

2. Trade of Rs.1,50,000/- per call is counted.

 
Page: ( 1 2 3 4 5 6 7 8 9 10 11 12 13 14 15 16 17 18 19 20 21 22 23 24 25 26 27 28 29 30 31 32 33 34 35 36 37 38 39 40 41 42 43 44 45 46 47 48 49 50 51 52 53 54 55 56 57 58 59 60 61 62 63 64 65 66 67 68 69 70 71 72 73 74 75 76 77 78 79 80 81 82 83 84 85 86 87 88 89 90 91 92 93 94 95 96 97 98 99 100 101 102 103 104 105 106 107 108 109 110 111 ) [Current Page: 7]
Displaying 451 to 525   Calls
Entry Date Type Scrip Entry Price (Rs) T1
(Rs)
T2
(Rs)
T3
(Rs)
Stop Loss
(Rs)
Exit Date Exit Rate
(Rs)
Profit
(Rs)
 
20-12-18 Sell SBI 296 290 285 280 302 21-12-18 296 0.00 More
20-12-18 Sell JUB FOOD 1366 1352 1342 1332 1380 20-12-18 1354 6000.00 More
19-12-18 Buy CG POWER 41 44 46 48 39 01-01-19 46 60000.00 More
18-12-18 Buy POWER GRID 196 202 208 214 190 21-12-18 198 8000.00 More
18-12-18 Buy SUN PHARMA 435 445 455 475 429 19-12-18 429 -6600.00 More
18-12-18 Buy WOCKHARDT 518 528 535 550 508 19-12-18 528 9000.00 More
18-12-18 Buy TATA MOTORS 175 180 185 190 170 21-12-18 178.50 5250.00 More
18-12-18 Buy LUPIN 843 853 863 875 833 20-12-18 862 13300.00 More
17-12-18 Buy OBC 89 92 93 99 87 18-12-18 94 30000.00 More
17-12-18 Buy ICICI PRU 313 323 328 333 308 17-12-18 325.95 16835.00 More
17-12-18 Buy VOLTAS 576 583 590 593 568 17-12-18 568 -8000.00 More
14-12-18 Buy RELIANCE CAPITAL 224 230 235 250 210 20-12-18 222 -3000.00 More
14-12-18 Buy CESC 706 716 721 727 696 17-12-18 696 -5500.00 More
14-12-18 Buy TITAN 940 953 955 963 933 14-12-18 933 -5250.00 More
13-12-18 Buy VOLTAS 568 573 575 581 563 13-12-18 563 -5000.00 More
13-12-18 Buy MARICO 374 385 390 395 365 19-12-18 393 49400.00 More
12-12-18 Buy OBC 89 91 93 97 87 13-12-18 91 12000.00 More
12-12-18 Sell Nifty 10657 10610 10575 10550 10710 12-12-18 10710 -7950.00 More
12-12-18 Sell BANK NIFTY 26510 26425 26400 26300 26610 12-12-18 26610 -4000.00 More
12-12-18 Buy CADILLA 350 360 370 375 340 13-12-18 358 12800.00 More
12-12-18 Buy SUN PHARMA 431 437 443 460 424 13-12-18 424 -7700.00 More
12-12-18 Buy WOCKHARDT 502 520 530 566 480 17-12-18 537 31500.00 More
11-12-18 Buy RELIANCE 1097 1108 1115 1128 1085 13-12-18 1128 15500.00 More
11-12-18 Sell RELIANCE INFRA 296 292 288 285 300 11-12-18 292 5200.00 More
11-12-18 Sell HCL TECH 943 932 930 925 951 11-12-18 951 -5600.00 More
10-12-18 Sell MARUTI 7305 7250 7225 7200 7352 10-12-18 7352 -3525.00 More
10-12-18 Sell LT 1380 1360 1350 1340 1401 10-12-18 1361 14250.00 More
07-12-18 Buy LUPIN 842 852 862 872 832 07-12-18 843 700.00 More
07-12-18 Sell AXIS BANK 600 595 590 585 607 07-12-18 595 6000.00 More
07-12-18 Sell INDIGO 1022 1008 998 988 1032 07-12-18 1010 7200.00 More
06-12-18 Sell SUNTV 575 567 565 560 579 06-12-18 579 -4000.00 More
06-12-18 Sell JUST DIAL 471 466 462 460 476 06-12-18 460 15400.00 More
06-12-18 Sell BHARAT FOIRG 520 515 512 510 525 06-12-18 515 6000.00 More
05-12-18 Sell INDIGO 1014 10003 998 993 1023 06-12-18 993 12600.00 More
05-12-18 Buy AURO PHARMA 820 832 845 860 800 05-12-18 800 -20000.00 More
05-12-18 Buy TCS 2002 2016 2025 2035 1990 05-12-18 2000 -500.00 More
04-12-18 Buy COLGATE 1236 1246 1256 1266 1224 04-12-18 1248 8400.00 More
04-12-18 Sell INDIGO 996 980 970 950 1020 04-12-18 1002 -3600.00 More
03-12-18 Buy BALKRISHNA IND 955 980 1000 1020 929 04-12-18 948 -5600.00 More
30-11-18 Sell Nifty 10930 10875 10850 10800 11000 30-11-18 10855 11250.00 More
30-11-18 Sell BANK NIFTY 26950 26875 26800 26700 27100 30-11-18 26850 4000.00 More
30-11-18 Buy HAVELLS 687 697 707 709 677 30-11-18 687 0.00 More
29-11-18 Buy TATA STEEL 536 542 544 546 529 30-11-18 529 -7427.00 More
29-11-18 Buy TCS 1972 1993 2000 2010 1952 29-11-18 1988 4000.00 More
28-11-18 Sell Nifty 10728 10690 10650 10600 10810 28-11-18 10720 1200.00 More
28-11-18 Sell JET AIR 277 272 270 262 282 28-11-18 272 6000.00 More
28-11-18 Sell PEL 2055 2025 2000 1975 2101 28-11-18 2101 -13892.00 More
27-11-18 Buy RELIANCE CAPITAL 236 242 246 262 226 28-11-18 246 15000.00 More
27-11-18 Buy AXIS BANK 629 635 637 645 620 27-11-18 638 10800.00 More
26-11-18 Sell PIDILITE 1151 1140 1135 1130 1165 26-11-18 1157 -3000.00 More
26-11-18 Sell BANK NIFTY 26100 26020 25900 25800 26240 26-11-18 26026 2960.00 More
22-11-18 Buy CIPLA 519 524 529 535 512 26-11-18 523 4000.00 More
22-11-18 Buy STAR 453 463 473 483 436 26-11-18 436 -10200.00 More
22-11-18 Sell BANK NIFTY 26275 26200 26100 26000 26410 22-11-18 26000 11000.00 More
21-11-18 Sell BANK NIFTY 26375 26300 26200 26100 26470 21-11-18 26320 2200.00 More
21-11-18 Buy TATA MOTORS 185 189 191 197 181 26-11-18 181 -6000.00 More
21-11-18 Buy TATA MOTOR DVR 100 102 104 106 98 26-11-18 98 -5600.00 More
21-11-18 Sell GRASIM 847 840 830 820 857 21-11-18 857 -7500.00 More
21-11-18 Sell ASIAN PAINT 1335 1321 1311 1300 1345 21-11-18 1336 -600.00 More
20-11-18 Sell BANK NIFTY 26200 26125 26100 25800 26310 20-11-18 26085 4600.00 More
20-11-18 Sell Nifty 10700 10670 10650 10610 10750 20-11-18 10652 7200.00 More
20-11-18 Buy JUB FOOD 1211 1221 1231 1241 1195 20-11-18 1219 4000.00 More
19-11-18 Sell INDUSIND BANK 1516 1500 1495 1490 1533 19-11-18 1522 -1800.00 More
19-11-18 Buy WELCORP 156 161 164 167 151 19-11-18 155.50 -475.00 More
16-11-18 Buy MOTHERSUMI 150 160 165 170 139.90 20-11-18 155 12000.00 More
16-11-18 Sell GRASIM 822 815 812 800 832 16-11-18 813 6750.00 More
16-11-18 Buy M&MFIN 443 447 449 451 437 16-11-18 437 -7500.00 More
16-11-18 Buy DIVIS LAB 1565 1590 1600 1625 1555 16-11-18 1555 -4000.00 More
16-11-18 Sell Nifty 10690 10650 10600 10550 10760 16-11-18 10650 6000.00 More
15-11-18 Buy RELIANCE CAPITAL 251 261 264 266 241 16-11-18 241 -15000.00 More
15-11-18 Buy STAR 456 466 476 486 446 16-11-18 466 6000.00 More
15-11-18 Sell Nifty 10650 10590 10550 10500 10725 15-11-18 10625 3750.00 More
15-11-18 Sell TCS 1890 1880 1875 1870 1905 15-11-18 1875 3750.00 More
15-11-18 Sell CESC 694 685 675 670 705 15-11-18 689 2750.00 More
15-11-18 Buy INDIGO 1042 1050 1055 1060 1035 15-11-18 1060 10800.00 More
Page wise profit 306526.00 Rs
Profit 26154042.00 Rs
TRIAL

TRIAL

SEND SMS FOR TRIAL

EQUITY - COMMODITY OR BOTH

TO

 09920033678

AND GET TRIAL